Observations for Trim Patrick St
| Time | AQI | Temp °C | Hum % | Pres Pa | CO μg/m³ | H₂S μg/m³ | NO μg/m³ | NO₂ μg/m³ | O₃ μg/m³ | SO₂ μg/m³ | PM1 μg/m³ | PM2.5 μg/m³ | PM10 μg/m³ |
|---|---|---|---|---|---|---|---|---|---|---|---|---|---|
| Thursday 6 August 2026 | |||||||||||||
| 14:21 | 2 | 25 | 37 | 68,920 | 0 | 8.78 | 1.91 | 10.43 | 100.18 | 9.54 | 2 | 8.02 | 8.82 |
| 14:20 | 2 | 25.1 | 37 | 68,939 | 0 | 8.14 | 2.21 | 9.46 | 92.96 | 9.48 | 2 | 7.25 | 7.97 |
| 14:18 | 2 | 25.3 | 36 | 68,930 | 0 | 9.86 | 1.73 | 10.56 | 109.38 | 10.74 | 2 | 7.28 | 8.01 |
| 14:17 | 2 | 25.4 | 36 | 68,924 | 0 | 1.31 | 1.73 | 9.36 | 96.93 | 9.09 | 2 | 7.28 | 8.01 |
| 14:15 | 2 | 25.6 | 35 | 68,930 | 0 | 5.03 | 2.02 | 9.03 | 88.01 | 9.95 | 2 | 8.15 | 8.97 |
| 14:14 | 2 | 25.7 | 35 | 68,918 | 0 | 0 | 2.15 | 8.89 | 105.28 | 8.95 | 2 | 8.15 | 8.97 |
| 14:13 | 2 | 25.8 | 34 | 68,935 | 0 | 0 | 2.37 | 5.83 | 77.93 | 10.25 | 2 | 8.2 | 9.02 |
| 14:12 | 2 | 26 | 35 | 68,932 | 0 | 0 | 2.3 | 6.12 | 71.08 | 9.52 | 2.86 | 8.17 | 8.99 |
| 14:11 | 2 | 26.1 | 35 | 68,922 | 0 | 0 | 2.2 | 8.2 | 74.17 | 9.62 | 2 | 7.38 | 8.12 |
| 14:10 | 2 | 26.2 | 34 | 68,937 | 0 | 0 | 2.28 | 4.57 | 74.07 | 10.55 | 2 | 7.43 | 8.17 |
| 14:08 | 2 | 26.5 | 35 | 68,979 | 0 | 0 | 2.13 | 4.77 | 66.21 | 10.57 | 2 | 7.38 | 8.12 |
| 14:07 | 2 | 26.6 | 35 | 68,983 | 0 | 0 | 2.05 | 8.58 | 82.8 | 9.86 | 2 | 7.38 | 8.12 |
| 14:06 | 2 | 26.6 | 33 | 68,979 | 0 | 0 | 2.23 | 8.73 | 77.95 | 9.18 | 2 | 7.46 | 8.21 |
| 14:05 | 2 | 26.7 | 34 | 68,977 | 0 | 0 | 2.03 | 10.49 | 86.37 | 9.92 | 2 | 7.4 | 8.14 |
| 14:04 | 2 | 26.8 | 33 | 68,945 | 0 | 0 | 2.21 | 4.3 | 58.68 | 10.43 | 2 | 7.5 | 8.26 |
| 14:02 | 2 | 27 | 34 | 68,945 | 0 | 0 | 1.92 | 13.07 | 75.57 | 8.73 | 2 | 7.44 | 8.19 |
| 14:01 | 2 | 27 | 35 | 68,961 | 0 | 0 | 1.73 | 9.16 | 80.26 | 10.83 | 2 | 7.38 | 8.12 |
| 14:00 | 2 | 27.1 | 34 | 68,977 | 0 | 0 | 1.82 | 9.07 | 71.87 | 9.7 | 2 | 7.44 | 8.18 |
| 13:59 | 2 | 27.1 | 33 | 69,001 | 0 | 0 | 1.95 | 6.61 | 63.98 | 9.42 | 2 | 7.49 | 8.23 |
| 13:58 | 2 | 27.2 | 33 | 69,002 | 0 | 0 | 1.91 | 10.91 | 80.75 | 9.52 | 2 | 7.51 | 8.26 |